Location: Baia Mare
(47.6567°N, 23.5850°E)
Time: 14:48:07
(UTC+02:00)

ISS - Pass Details

Date: 31 January 2019
Orbit: 406 x 411 km, 51.6° (Epoch: 22 March)

Event Time Altitude Azimuth Distance (km) Brightness Sun altitude
Rises 18:48:18 0° 278° (W) 2,347 1.5 -14.2°
Reaches altitude 10° 18:50:28 10° 286° (WNW) 1,486 0.1 -14.6°
Maximum altitude 18:53:39 40° 358° (N) 632 -3.0 -15.1°
Enters shadow 18:54:46 29° 44° (NE) 794 -2.8 -15.3°
